Wind_Speed
24 24 25 25 24 24 23 23 23 23 22 20 20 19 19 19 19 21 21 19 19 18 19 20 20 21 21 22 24 25 26 26 26 26 26 26 26 25 24 24 24 24 25 25
25 25 24 26 25 25 23 22 22 23 22 22 21 21 22 21 21 22 21 21 21 20 21 21 22 22 23 24 25 26 27 27 27 27 26 26 26 25 25 25 24 25 25 26
27 26 25 24 24 25 24 22 23 23 22 22 21 20 21 22 22 22 22 22 21 21 21 22 23 24 25 26 27 27 27 27 27 27 27 26 26 25 25 25 25 25 25 25
27 26 28 25 24 25 25 25 25 25 24 24 24 24 24 24 24 25 25 24 23 23 23 24 24 25 27 27 27 27 27 27 28 28 28 28 27 27 26 26 26 26 26 26
28 28 28 26 26 26 26 26 26 26 25 25 25 26 27 26 26 26 26 26 25 25 26 27 27 28 29 29 28 28 28 29 30 30 29 29 29 28 28 27 27 28 29 29
28 28 27 26 27 27 28 27 27 27 27 28 28 28 28 28 28 28 28 28 28 28 29 28 28 29 29 29 29 29 29 30 31 31 30 30 30 30 29 29 29 29 30 29
28 28 28 26 26 27 28 28 28 28 29 29 31 31 31 31 31 30 30 30 30 30 30 30 30 31 30 30 30 30 31 31 32 31 31 30 30 30 30 30 30 30 30 30
28 29 29 29 28 27 27 27 29 30 29 29 30 30 29 30 30 31 31 32 31 31 30 31 31 32 32 31 32 32 32 32 31 31 31 31 30 30 30 31 30 30 30 31
28 29 29 29 29 29 29 30 30 29 29 29 29 28 29 30 30 31 31 31 31 31 32 32 32 33 33 33 33 32 32 32 32 31 30 30 30 30 30 30 30 30 31 31
29 29 29 29 31 31 30 30 29 29 28 29 29 29 29 30 31 31 31 31 32 32 33 33 34 34 34 34 33 32 32 32 32 31 30 30 30 30 30 30 30 31 31 30
29 29 29 31 32 32 31 30 29 30 30 28 28 30 30 31 33 33 33 34 34 34 34 34 34 35 35 34 34 33 32 31 30 30 30 30 30 30 30 30 30 30 30 30
30 31 32 32 32 33 33 33 32 32 32 32 31 32 32 33 33 34 35 35 36 36 35 35 35 34 34 34 33 32 31 30 30 30 30 30 31 30 30 30 30 30 30 31
32 33 34 34 34 34 34 34 34 34 34 35 35 35 35 35 35 36 37 37 36 36 36 35 34 34 32 32 31 32 31 31 31 31 30 30 31 30 30 30 30 30 31 31
34 35 36 35 34 34 34 35 35 35 36 36 37 37 37 37 36 37 37 37 37 36 35 35 34 34 33 32 32 33 32 32 33 32 31 31 30 31 30 29 30 30 31 31
34 35 35 35 35 35 34 35 35 36 36 37 37 37 37 37 37 36 36 35 35 34 33 33 34 34 34 33 34 34 33 33 32 32 32 31 31 31 30 29 29 30 30 30
32 33 34 34 35 34 34 34 35 35 36 36 37 37 37 36 36 35 35 34 34 34 33 32 32 33 33 34 34 34 33 33 32 31 31 31 31 30 30 29 29 29 28 28
29 30 31 31 31 32 33 34 34 34 34 34 34 34 35 35 34 33 33 33 33 33 33 33 33 33 33 34 34 33 33 32 32 31 30 30 30 30 29 29 28 28 27 27
25 26 27 27 29 30 31 32 32 32 32 33 33 33 33 33 33 32 32 32 33 33 33 34 34 34 34 34 34 34 33 32 31 31 30 29 29 29 29 28 28 27 27 26
25 25 25 26 27 28 28 29 30 30 30 31 31 32 32 32 32 32 32 32 32 32 33 34 34 34 34 34 33 33 33 32 31 30 29 29 28 28 28 28 27 26 26 26
23 24 24 24 25 25 26 26 27 27 28 29 29 30 31 31 32 32 32 31 31 31 31 32 32 33 32 32 32 31 31 31 30 29 28 28 28 28 27 26 26 26 26 26
22 23 23 24 24 24 24 24 25 25 26 26 27 28 29 29 30 30 31 30 31 31 31 31 31 31 32 32 32 31 30 30 29 28 27 26 26 26 25 25 25 25 26 27
22 22 22 23 23 23 23 23 23 24 24 25 25 26 26 26 27 28 29 30 30 30 30 30 30 30 30 30 29 28 28 28 27 27 26 26 26 26 26 26 26 26 26 27
20 20 21 22 23 23 23 23 23 23 24 24 24 25 25 26 26 26 27 27 28 28 28 27 28 27 27 26 25 25 25 25 25 26 26 26 26 26 27 27 27 27 27 27
20 20 21 22 22 22 22 22 23 24 24 24 25 26 26 26 26 26 27 27 27 27 27 26 26 26 26 26 25 25 25 25 25 25 25 25 26 27 26 26 27 27 27 27
19 20 21 21 22 21 22 22 23 23 24 25 25 25 25 25 26 26 27 26 26 27 26 26 26 26 26 26 25 25 25 25 25 25 25 26 26 26 26 26 27 27 27 26
18 19 20 20 21 21 21 22 22 23 23 23 23 24 25 25 25 25 25 25 26 25 25 25 25 25 25 25 26 25 25 24 24 24 25 26 27 27 26 27 27 27 26 26
18 19 19 20 20 20 21 21 21 21 22 22 22 23 24 24 25 25 25 25 25 25 25 25 25 24 24 24 25 25 25 25 25 26 26 26 26 27 27 27 27 26 26 27
Wind_Direction
242 240 238 238 242 246 249 252 257 261 265 270 275 276 279 284 288 294 295 293 292 293 293 293 293 294 295 296 297 297 298 297 299 300 301 302 303 301 298 297 297 298 298 300
243 242 242 241 244 247 248 250 255 261 264 269 275 277 278 280 284 290 295 293 294 296 295 295 295 295 295 296 297 297 297 297 297 298 299 299 299 299 298 299 297 297 298 298
245 243 245 243 243 244 246 248 251 257 263 267 272 276 279 280 282 286 290 292 294 294 295 294 294 294 294 295 295 296 296 297 297 298 298 297 297 298 299 301 301 299 298 299
248 246 246 245 244 245 247 250 253 257 260 264 269 274 277 279 281 283 286 287 290 292 293 292 293 293 293 294 295 296 297 296 296 296 297 296 295 296 297 299 299 298 298 299
249 249 250 246 245 247 249 252 255 258 262 266 268 270 273 277 280 282 284 285 286 288 291 292 292 292 293 293 294 295 296 296 296 297 297 295 295 294 296 298 298 299 300 299
249 250 251 251 249 251 252 252 255 259 263 267 269 270 272 274 277 278 281 283 285 287 290 292 292 293 294 294 294 294 295 295 296 296 296 296 295 295 296 296 297 298 298 298
247 250 252 251 250 253 254 256 258 261 263 266 268 271 273 273 275 277 280 282 285 287 287 288 291 292 292 292 292 292 292 292 293 294 295 295 294 293 293 294 296 297 298 297
245 249 251 253 253 254 258 260 261 262 263 265 266 269 271 273 275 278 280 282 284 286 286 288 290 291 291 290 290 290 290 290 291 292 294 294 293 293 293 294 295 297 297 298
248 251 255 256 256 256 259 261 263 265 264 266 267 267 270 273 274 277 279 281 283 284 286 287 288 289 289 289 289 290 290 290 291 290 291 292 291 291 292 293 294 296 297 298
254 254 255 256 256 257 260 263 264 265 267 269 270 271 271 273 275 278 280 281 283 283 283 285 286 287 287 288 288 289 289 289 289 289 288 289 289 289 290 291 293 295 297 299
255 257 257 257 260 261 260 263 265 266 267 269 272 273 274 277 279 279 280 281 282 283 283 284 285 285 286 286 286 288 288 288 288 288 289 289 289 290 291 291 293 295 297 299
254 257 258 259 261 263 264 265 266 267 267 270 274 275 277 278 279 279 279 281 282 284 284 283 283 285 284 284 284 285 286 286 286 287 288 289 289 290 292 293 294 295 297 298
255 257 257 260 262 263 266 267 267 267 268 271 274 276 278 279 279 280 280 280 281 283 283 283 284 283 284 284 284 285 285 285 284 285 286 288 289 289 291 292 293 295 296 297
257 258 259 260 263 265 266 268 268 269 270 272 274 276 277 279 280 281 281 281 280 281 282 282 282 282 284 284 284 284 285 284 283 283 285 287 287 288 289 291 292 294 296 296
258 260 262 262 263 265 266 267 269 269 269 269 271 273 274 275 277 279 282 283 282 281 282 281 280 281 282 283 285 284 284 283 282 282 283 285 287 287 287 289 292 294 295 296
258 260 262 264 265 264 265 267 269 270 270 270 271 272 273 274 276 279 281 282 282 281 281 281 281 281 283 285 285 284 284 283 282 280 280 283 285 287 288 289 292 294 295 296
260 260 261 263 264 265 267 268 270 271 271 272 272 273 273 274 277 279 279 280 281 280 279 280 281 282 282 283 284 284 283 283 283 282 280 281 283 284 285 287 289 292 294 295
260 262 263 267 267 267 269 269 269 271 272 272 273 273 274 275 276 277 278 278 279 280 280 280 280 281 281 281 281 281 281 281 282 283 280 281 281 282 283 285 287 290 293 295
265 266 269 270 270 270 273 272 270 271 272 274 275 275 275 275 276 277 278 278 279 280 280 280 280 281 281 280 279 278 278 278 279 280 279 278 279 282 283 284 285 286 289 293
266 267 271 273 276 276 275 274 271 272 273 275 276 277 277 278 278 279 280 280 280 281 282 281 281 280 280 280 280 278 278 279 280 280 279 278 278 280 282 282 283 286 288 291
272 272 274 275 277 278 277 277 277 276 276 277 278 279 280 280 280 280 280 280 281 281 282 282 282 282 281 281 280 279 278 277 277 278 279 279 278 279 279 282 285 287 289 291
272 273 274 275 277 278 279 280 279 279 279 280 281 282 283 283 282 281 282 283 282 281 280 280 281 282 281 281 281 280 279 276 274 275 276 277 278 278 279 282 284 286 289 291
273 274 276 277 279 281 281 281 280 280 281 282 284 284 284 284 284 284 285 285 284 282 281 280 280 280 280 280 281 279 278 277 276 274 275 276 276 277 279 281 283 285 288 290
275 277 279 281 282 282 283 283 283 283 283 283 284 285 285 285 286 287 288 287 286 286 284 283 281 280 279 280 280 281 280 279 277 275 276 276 277 277 279 281 283 284 286 289
278 279 281 283 284 285 286 286 285 285 286 285 285 286 287 287 288 288 288 288 287 286 285 285 284 282 280 279 280 280 279 277 276 276 276 278 278 279 280 282 285 285 285 287
281 282 282 283 283 285 288 289 289 288 288 288 288 288 288 289 288 289 289 288 288 287 285 284 284 284 282 279 278 278 277 275 274 274 277 279 279 279 281 283 284 284 285 285
285 286 285 284 285 287 290 292 291 290 290 290 291 292 291 290 289 288 288 288 288 288 287 285 284 285 283 281 281 279 278 277 276 275 276 278 279 279 279 280 281 282 285 287
Height
5865 5867 5868 5870 5871 5871 5872 5873 5874 5874 5875 5876 5876 5876 5876 5876 5875 5874 5873 5873 5872 5870 5870 5869 5868 5867 5865 5864 5862 5860 5858 5856 5853 5851 5849 5846 5844 5841 5839 5836 5834 5832 5830 5828
5860 5861 5863 5864 5865 5866 5867 5867 5868 5869 5870 5870 5871 5871 5871 5870 5870 5870 5868 5867 5866 5865 5865 5864 5862 5861 5860 5858 5856 5854 5852 5849 5847 5844 5842 5839 5837 5835 5832 5830 5827 5825 5823 5820
5853 5855 5856 5859 5860 5860 5861 5861 5862 5863 5865 5865 5865 5865 5865 5865 5865 5864 5864 5862 5861 5859 5858 5857 5856 5855 5853 5852 5850 5848 5845 5843 5840 5837 5835 5833 5830 5828 5825 5822 5820 5818 5816 5813
5846 5849 5850 5854 5853 5853 5854 5855 5856 5857 5858 5859 5860 5859 5859 5859 5859 5858 5858 5856 5855 5853 5852 5850 5849 5848 5846 5844 5842 5840 5838 5835 5833 5830 5828 5825 5822 5820 5817 5815 5813 5811 5808 5805
5840 5841 5842 5845 5846 5847 5848 5849 5850 5850 5851 5852 5852 5853 5853 5853 5852 5852 5851 5849 5848 5847 5845 5844 5842 5841 5839 5837 5835 5833 5830 5828 5825 5823 5820 5818 5815 5812 5810 5808 5805 5803 5800 5797
5832 5834 5835 5839 5840 5840 5842 5842 5843 5844 5844 5846 5846 5847 5847 5846 5846 5845 5844 5843 5842 5840 5839 5837 5835 5833 5831 5829 5827 5825 5823 5820 5818 5815 5813 5810 5807 5805 5802 5800 5797 5795 5792 5789
5825 5826 5828 5830 5832 5834 5836 5837 5837 5837 5837 5838 5839 5839 5840 5839 5838 5837 5836 5835 5834 5833 5831 5829 5828 5826 5823 5821 5819 5817 5815 5812 5810 5807 5804 5802 5799 5797 5794 5792 5789 5786 5783 5780
5818 5820 5823 5823 5825 5827 5828 5829 5829 5829 5830 5830 5830 5831 5831 5831 5830 5829 5828 5827 5826 5824 5823 5821 5819 5817 5815 5813 5810 5808 5806 5803 5801 5799 5796 5793 5791 5788 5785 5783 5780 5777 5774 5771
5812 5814 5815 5816 5817 5818 5819 5821 5821 5821 5821 5822 5822 5822 5823 5823 5822 5821 5820 5819 5817 5816 5814 5813 5811 5808 5806 5804 5801 5799 5796 5794 5792 5790 5787 5785 5782 5779 5776 5774 5771 5768 5765 5762
5804 5805 5807 5808 5809 5810 5811 5812 5813 5814 5814 5814 5814 5814 5814 5814 5813 5812 5811 5810 5808 5807 5805 5803 5801 5799 5797 5795 5792 5790 5788 5785 5782 5780 5777 5775 5772 5770 5767 5765 5762 5759 5756 5753
5796 5797 5798 5800 5801 5802 5802 5804 5805 5806 5806 5806 5806 5805 5805 5804 5803 5802 5801 5800 5799 5797 5795 5793 5791 5789 5787 5785 5783 5780 5778 5776 5773 5771 5768 5765 5763 5761 5759 5756 5754 5751 5748 5745
5788 5789 5791 5792 5793 5793 5794 5795 5796 5796 5797 5797 5797 5796 5795 5794 5793 5792 5791 5790 5789 5787 5784 5782 5780 5778 5776 5775 5772 5770 5768 5766 5764 5762 5759 5757 5754 5752 5749 5747 5745 5742 5739 5736
5779 5781 5782 5783 5784 5784 5785 5785 5786 5787 5787 5787 5787 5786 5785 5784 5783 5782 5781 5780 5778 5776 5774 5771 5770 5768 5766 5765 5763 5761 5759 5757 5755 5752 5750 5748 5745 5743 5741 5738 5735 5733 5730 5727
5770 5771 5772 5773 5774 5775 5775 5775 5775 5776 5776 5776 5776 5775 5774 5773 5772 5771 5770 5768 5767 5765 5763 5762 5760 5759 5757 5755 5753 5751 5749 5747 5745 5743 5740 5738 5736 5734 5732 5729 5727 5724 5722 5719
5761 5761 5762 5763 5763 5764 5764 5765 5765 5765 5765 5765 5765 5765 5764 5763 5762 5761 5759 5757 5756 5754 5753 5751 5750 5749 5746 5744 5742 5740 5738 5737 5735 5733 5731 5729 5726 5724 5723 5721 5718 5716 5713 5711
5751 5751 5752 5753 5753 5753 5754 5754 5754 5754 5754 5754 5754 5753 5753 5752 5751 5750 5749 5747 5745 5744 5743 5741 5740 5738 5736 5734 5732 5730 5728 5726 5724 5722 5721 5719 5717 5715 5714 5712 5710 5708 5705 5702
5741 5742 5743 5743 5743 5743 5744 5744 5744 5744 5743 5743 5743 5742 5741 5741 5740 5739 5738 5736 5735 5733 5732 5730 5729 5727 5725 5723 5721 5719 5717 5715 5714 5712 5711 5709 5708 5706 5705 5703 5701 5699 5697 5694
5731 5733 5733 5733 5733 5734 5734 5733 5733 5733 5733 5732 5732 5731 5731 5730 5729 5728 5727 5726 5725 5723 5722 5720 5718 5716 5714 5712 5710 5708 5706 5705 5703 5702 5701 5700 5698 5697 5696 5694 5692 5690 5688 5686
5723 5723 5724 5724 5724 5724 5724 5723 5723 5722 5722 5722 5721 5720 5720 5719 5719 5718 5716 5715 5714 5713 5711 5709 5707 5705 5703 5701 5699 5697 5695 5694 5693 5692 5690 5690 5689 5688 5686 5685 5683 5682 5680 5678
5715 5715 5716 5716 5715 5715 5715 5714 5713 5713 5713 5712 5711 5710 5710 5709 5708 5707 5705 5704 5703 5701 5700 5698 5696 5694 5692 5690 5688 5686 5685 5684 5683 5682 5680 5680 5679 5678 5677 5676 5675 5673 5672 5670
5708 5708 5708 5708 5708 5707 5706 5706 5705 5704 5704 5703 5702 5701 5700 5699 5697 5696 5695 5694 5693 5691 5689 5687 5685 5684 5682 5680 5678 5676 5675 5674 5673 5672 5672 5671 5670 5670 5669 5668 5667 5665 5664 5662
5702 5701 5701 5701 5700 5699 5698 5697 5697 5696 5695 5694 5693 5692 5691 5690 5688 5686 5685 5684 5682 5680 5678 5677 5675 5673 5671 5670 5668 5667 5666 5665 5664 5663 5663 5663 5662 5661 5661 5660 5659 5657 5656 5654
5695 5695 5694 5693 5693 5692 5691 5690 5689 5688 5687 5686 5684 5683 5682 5681 5679 5678 5676 5674 5671 5670 5668 5667 5666 5664 5662 5660 5659 5658 5657 5656 5655 5655 5654 5654 5653 5652 5652 5651 5650 5649 5647 5645
5688 5688 5687 5686 5685 5684 5683 5682 5681 5680 5679 5677 5676 5675 5674 5672 5671 5668 5666 5664 5662 5660 5659 5658 5656 5654 5653 5652 5650 5649 5648 5648 5647 5646 5645 5645 5644 5643 5643 5642 5641 5640 5639 5637
5682 5681 5680 5680 5678 5677 5676 5675 5673 5672 5671 5669 5668 5667 5665 5663 5662 5660 5658 5656 5654 5652 5650 5648 5647 5645 5644 5643 5642 5641 5640 5639 5638 5637 5637 5636 5636 5635 5634 5633 5632 5631 5630 5628
5675 5675 5674 5673 5671 5670 5669 5668 5666 5665 5663 5662 5660 5658 5657 5655 5653 5651 5649 5647 5645 5643 5641 5640 5638 5636 5635 5634 5633 5633 5631 5631 5630 5629 5628 5628 5627 5626 5625 5625 5624 5622 5620 5619
5669 5668 5667 5666 5665 5663 5662 5660 5659 5657 5656 5654 5652 5650 5648 5646 5644 5642 5640 5638 5636 5634 5633 5631 5629 5628 5626 5625 5625 5624 5623 5622 5621 5621 5620 5619 5618 5617 5616 5615 5614 5612 5611 5610